Weather History for Tallahassee, FL

Change the Weather History Date:

Thursday, June 20, 2013

  Actual Average Record
Temperature  
Mean Temperature 83 °F 81 °F  
Max Temperature 93 °F 91 °F 104 °F (1933)
Min Temperature 73 °F 70 °F 62 °F (1965)
Degree Days  
Heating Degree Days 0    
Month to date heating degree days 0  
Since 1 June heating degree days 0  
Since 1 July heating degree days 1332  
Cooling Degree Days 18    
Month to date cooling degree days 352  
Year to date cooling degree days 814  
Since 1 June cooling degree days 352  
Growing Degree Days 33 (Base 50)    
Moisture  
Dew Point 69 °F    
Average Humidity 65    
Maximum Humidity 93    
Minimum Humidity 36    
Precipitation  
Precipitation 0.09 in 0.28 in 2.23 in (1892)
Month to date precipitation 3.33 5.00  
Year to date precipitation 25.72 26.66  
Sea Level Pressure  
Sea Level Pressure 30.06 in    
Wind  
Wind Speed 4 mph (ESE)    
Max Wind Speed 23 mph    
Max Gust Speed 28 mph    
Visibility 10 miles    
Events Rain , Thunderstorm    
T = Trace of Precipitation, MM = Missing Value Source: NWS Daily Summary

Daily Weather History Graph

Daily Weather History Graph

Search for Another Location

Airport:

Trip Planner

Search our weather history database for the weather conditions in past years. The results will help you decide how hot, cold, wet, or windy it might be!

Date:

Astronomy

Jun. 20, 2013 Rise Set
Actual Time 6:35 AM EDT 8:42 PM EDT
Civil Twilight 6:08 AM EDT 9:10 PM EDT
Nautical Twilight 5:34 AM EDT 9:43 PM EDT
Astronomical Twilight 4:58 AM EDT 10:19 PM EDT
Moon 5:50 PM EDT (6/20) 3:52 AM EDT (6/20)
Length of Visible Light 15h 01m
Length of Day
14h 06m
Waxing Gibbous, 89% of the Moon is Illuminated
Jun 20
Waxing Gibbous
Jun 23
Full
Jun 30
Last Quarter
Jul 8
New
Jul 15
First Quarter

Hourly Weather History & Observations

Time (EDT) Temp. Heat Index Dew Point Humidity Pressure Visibility Wind Dir Wind Speed Gust Speed Precip Events Conditions
12:53 AM 77.0 °F - 72.0 °F 84% 30.04 in 10.0 mi Calm Calm - N/A   Overcast
1:53 AM 75.9 °F - 71.1 °F 85% 30.02 in 10.0 mi Calm Calm - N/A   Clear
2:53 AM 73.9 °F - 71.1 °F 91% 30.01 in 10.0 mi Calm Calm - N/A   Partly Cloudy
3:53 AM 73.9 °F - 71.1 °F 91% 30.00 in 10.0 mi Calm Calm - N/A   Clear
4:53 AM 73.0 °F - 70.0 °F 90% 30.01 in 10.0 mi Calm Calm - N/A   Clear
5:53 AM 73.9 °F - 70.0 °F 87% 30.02 in 10.0 mi Calm Calm - N/A   Clear
6:53 AM 73.9 °F - 71.1 °F 91% 30.05 in 10.0 mi NNE 3.5 mph - N/A   Overcast
7:53 AM 75.0 °F - 70.0 °F 84% 30.07 in 10.0 mi North 4.6 mph - N/A   Mostly Cloudy
8:53 AM 78.1 °F - 70.0 °F 76% 30.09 in 10.0 mi NNW 3.5 mph - N/A   Scattered Clouds
9:53 AM 82.0 °F 85.5 °F 69.1 °F 65% 30.09 in 10.0 mi North 5.8 mph - N/A   Scattered Clouds
10:53 AM 86.0 °F 88.2 °F 66.0 °F 51% 30.10 in 10.0 mi Calm Calm - N/A   Scattered Clouds
11:53 AM 89.1 °F 89.3 °F 62.1 °F 40% 30.09 in 10.0 mi Variable 3.5 mph - N/A   Partly Cloudy
12:53 PM 91.0 °F 90.9 °F 61.0 °F 36% 30.08 in 10.0 mi ENE 9.2 mph - N/A   Scattered Clouds
1:53 PM 90.0 °F 91.3 °F 64.0 °F 42% 30.06 in 10.0 mi North 5.8 mph - N/A   Scattered Clouds
2:53 PM 93.0 °F 94.6 °F 64.0 °F 38% 30.05 in 10.0 mi Variable 3.5 mph - N/A   Scattered Clouds
3:26 PM 82.4 °F 86.3 °F 69.8 °F 66% 30.08 in 10.0 mi SW 23.0 mph 27.6 mph N/A Thunderstorm Thunderstorm
3:37 PM 80.6 °F 83.9 °F 69.8 °F 70% 30.08 in 10.0 mi SW 19.6 mph 27.6 mph N/A Thunderstorm Thunderstorm
3:53 PM 78.1 °F - 71.1 °F 79% 30.08 in 2.0 mi SSW 16.1 mph 26.5 mph 0.00 in Rain , Thunderstorm Heavy Thunderstorms and Rain
4:09 PM 75.2 °F - 71.6 °F 89% 30.08 in 10.0 mi South 9.2 mph - 0.09 in Rain , Thunderstorm Light Thunderstorms and Rain
4:42 PM 75.2 °F - 71.6 °F 89% 30.09 in 10.0 mi SE 5.8 mph - 0.09 in Thunderstorm Thunderstorm
4:53 PM 77.0 °F - 71.1 °F 82% 30.08 in 10.0 mi SSE 4.6 mph - 0.09 in Thunderstorm Thunderstorm
5:35 PM 80.6 °F 83.9 °F 69.8 °F 70% 30.06 in 10.0 mi ESE 4.6 mph - N/A   Mostly Cloudy
5:53 PM 80.1 °F 82.9 °F 69.1 °F 69% 30.04 in 10.0 mi Calm Calm - N/A   Scattered Clouds
6:53 PM 82.0 °F 84.9 °F 68.0 °F 62% 30.04 in 10.0 mi WSW 6.9 mph - N/A   Scattered Clouds
7:53 PM 82.0 °F 85.5 °F 69.1 °F 65% 30.06 in 10.0 mi SSW 4.6 mph - N/A   Scattered Clouds
8:53 PM 80.1 °F 83.6 °F 71.1 °F 74% 30.07 in 10.0 mi East 5.8 mph - N/A   Scattered Clouds
9:53 PM 77.0 °F - 71.1 °F 82% 30.09 in 10.0 mi East 8.1 mph - N/A   Mostly Cloudy
10:53 PM 75.9 °F - 70.0 °F 82% 30.09 in 10.0 mi East 3.5 mph - N/A   Scattered Clouds
11:53 PM 77.0 °F - 69.1 °F 76% 30.10 in 10.0 mi Calm Calm - N/A   Clear